Regional Weather Roundup
Issued by NWS

Home | Current Version | Previous Version | Text Only | Print | Product List | Glossary On
Versions: 1 2 3 4 5 6 7 8 9 10 11 12 13 14 15 16 17 18 19 20 21 22 23 24 25 26 27 28 29 30 31 32 33 34 35 36 37 38 39 40 41 42 43 44 45 46 47 48 49 50
000
ASUS45 KPSR 232110
RWRAZ

ARIZONA REGIONAL HOURLY WEATHER ROUNDUP
NATIONAL WEATHER SERVICE PHOENIX AZ
200 PM MST THU OCT 23 2014

NOTE: FAIR INDICATES FEW OR NO CLOUDS BELOW 12,000 FEET WITH NO
SIGNIFICANT WEATHER AND/OR OBSTRUCTIONS TO VISIBILITY.

AZZ001>003-036-232200-
NORTHWEST ARIZONA

CITY           SKY/WX    TMP DP  RH WIND       PRES   REMARKS
BULLHEAD CITY  FAIR      90  39  17 SW6       29.96F
KINGMAN        FAIR      82  34  17 SW7       30.10F
$$

AZZ004>008-015-016-018-232200-
NORTH CENTRAL ARIZONA

CITY           SKY/WX    TMP DP  RH WIND       PRES   REMARKS
GRAND CANYON   FAIR      70  30  22 SW8       30.29F
PRESCOTT       FAIR      78  37  22 S7        30.19F
FLAGSTAFF      FAIR      68  33  27 S6G17     30.31F
PAYSON         FAIR      75  36  23 VRB5G13   30.23F
PAGE           FAIR      74  31  20 E5        30.16F
$$

AZZ009>014-017-232200-
NORTHEAST ARIZONA

CITY           SKY/WX    TMP DP  RH WIND       PRES   REMARKS
WINSLOW        FAIR      77  36  22 CALM      30.20F
SAINT JOHNS    FAIR      75  38  26 NW6       30.22F
WINDOW ROCK    FAIR      73  29  19 MISG      30.27F
SHOW LOW       FAIR      70  36  28 SW5       30.29F
$$

AZZ023-232200-
GREATER PHOENIX AREA

CITY           SKY/WX    TMP DP  RH WIND       PRES   REMARKS
PHOENIX        FAIR      91  47  21 CALM      29.95F
BUCKEYE          N/A     90  50  25 SE7       29.96F
GLENDALE       MOSUNNY   90  50  25 CALM      29.97F
LUKE AFB       FAIR      89  51  27 CALM      29.95F
DEER VALLEY    FAIR      88  46  23 CALM      29.97F
SCOTTSDALE     FAIR      91  47  21 VRB5      29.99F
MESA-GATEWAY   SUNNY     90  52  27 CALM      29.99F
CHANDLER       MOSUNNY   90  50  25 CALM      29.97F
$$

AZZ027-028-232200-
SOUTHWEST MARICOPA COUNTY AND PINAL COUNTY

CITY           SKY/WX    TMP DP  RH WIND       PRES   REMARKS
CASA GRANDE    FAIR      88  50  27 CALM      29.98F
GILA BEND      CLEAR     93  46  20 E1        29.93F
$$

AZZ503-504-507>509-232200-
SOUTHEAST ARIZONA

CITY           SKY/WX    TMP DP  RH WIND       PRES   REMARKS
TUCSON         FAIR      89  43  20 VRB3      30.04F
DAVIS-MONTHAN  FAIR      87  43  21 NW6       30.02F
NOGALES        FAIR      85  43  22 SW7       30.10F
SIERRA VISTA   MOSUNNY   81  45  28 VRB5      30.16F
DOUGLAS        FAIR      81  46  29 VRB5      30.13F
SAFFORD        FAIR      82  47  29 S3        30.08F
$$

AZZ020-021-025-026-031-232200-
SOUTHWEST ARIZONA

CITY           SKY/WX    TMP DP  RH WIND       PRES   REMARKS
YUMA           FAIR      96  43  16 VRB3      29.90F
$$

CAZ031-033-041-043-047-048-061-232200-
SOUTHERN CALIFORNIA

CITY           SKY/WX    TMP DP  RH WIND       PRES   REMARKS
DOWNTOWN L.A.  FAIR      84  56  38 VRB3      29.93F
L.A. AIRPORT   FAIR      76  63  64 W9        29.95F
SAN DIEGO      FAIR      76  61  59 NW8       29.95F
BURBANK        FAIR      87  46  24 S6        29.95F
ONTARIO        FAIR      90  30  11 S5        29.95F
RIVERSIDE      FAIR      91  29  11 VRB6      29.94F
PALM SPRINGS   FAIR      94  36  13 E9        29.94F
EL CENTRO NAS  FAIR      94  44  17 E3        29.89F
IMPERIAL       FAIR      93  46  19 NW5       29.89F
BLYTHE         FAIR      93  44  18 CALM      29.92F
NEEDLES        FAIR      91  37  15 NE5       29.96F
$$

NVZ020-UTZ003-232200-
SOUTHERN NEVADA-UTAH

CITY           SKY/WX    TMP DP  RH WIND       PRES   REMARKS
LAS VEGAS      FAIR      83  34  17 SE6       29.98F
SALT LAKE CITY PTSUNNY   70  36  28 N9        30.06F
$$

NMZ009-TXZ055-232200-
NEW MEXICO-WEST TEXAS

CITY           SKY/WX    TMP DP  RH WIND       PRES   REMARKS
ALBUQUERQUE    SUNNY     72  36  26 VRB3      30.21F
EL PASO        FAIR      78  48  34 CALM      30.13F
$$


........................KEY........................
SKY/WX - SKY CONDITION/WEATHER
TMP    - TEMPERATURE IN FAHRENHEIT
DP     - DEW POINT IN FAHRENHEIT
RH     - RELATIVE HUMIDITY IN PERCENT
WIND   - DIRECTION AND SPEED IN MILES PER HOUR (MPH)
VRB    - VARIABLE WIND DIRECTION
PRES   - MEAN SEA LEVEL PRESSURE IN INCHES OF MERCURY
         F - FALLING PRESSURE   R - RISING PRESSURE
         S - STEADY PRESSURE
VSB    - VISIBILITY IN MILES
HX     - HEAT INDEX IN FAHRENHEIT
WCI    - WIND CHILL INDEX IN FAHRENHEIT
TC     - TEMPERATURE IN CELSIUS WHICH IS ALSO KNOWN AS
         TEMPERATURE IN CENTIGRADE
AFB    - AIR FORCE BASE
         LUKE AFB IS LUKE AIR FORCE BASE
         DAVIS-MONTHAN IS DAVIS-MONTHAN AIR FORCE BASE
NAS    - NAVAL AIR STATION
         EL CENTRO NAS IS EL CENTRO NAVAL AIR STATION
N/A    - NOT AVAILABLE



USA.gov is the U.S. government's official web portal to all federal, state and local government web resources and services.